Lotnisko EPSD


Aktualna POGODA z lotniska w Goleniowie (EPSC)

EPSC 192330Z 15006KT CAVOK 11/10 Q1010

TAF EPSC 191730Z 1918/2018 15010KT CAVOK BECMG 2000/2003 VRB05KT PROB40 2000/2006 3000 BR

Przed przylotem na lotnisko w Szczecinie-Dąbiu (EPSD) konieczne jest wcześniejsze uzyskanie zgody na lądowanie (PPR)

Znak ICAO: EPSD

Współrzędne lotniska: N532332 E0143802

Współrzędne ATZ: N532228 E0144207

ATZ lotniska: okrąg o promieniu 10km

Granice pionowe ATZ: GND/5500 ft (1676 m) AMSL

Łączność radiowa: Szczecin Radio na częstotliwości 122.2 MHz
Pas trawiasty: RWY 09R – 27L (900m x 50m)

Elewacja: 3 ft (1 m)

Pliki do wglądu lub pobrania:

Plik Opis Rozmiar pliku
pdf EPSD Szczecin Dąbie Dane opisowe
135 KB
pdf EPSD plan lotniska Drogi startowe w użyciu
198 KB
pdf EPSD krąd nadlotniskowy Zasady poruszania się po kręgu
100 KB
pdf Regulamin hangarowania Regulamin użytkowania hangaru Aeroklubu Szczecińskiego
108 KB